Hourly Weather Zhuravlevka

Today, 12 July, Sunday

Time Temperature Precipitation Wind Pressure Humidity
00:00 +18°C° 0 mm 3 mps 742 mmHg 91%
01:00 +18°C° 0 mm 3 mps 742 mmHg 92%
02:00 +17°C° 0 mm 3 mps 742 mmHg 92%
03:00 +17°C° 0 mm 3 mps 742 mmHg 92%
04:00 +17°C° 0 mm 2 mps 742 mmHg 91%
05:00 +18°C° 0 mm 2 mps 741 mmHg 90%
06:00 +18°C° 0 mm 2 mps 741 mmHg 89%
07:00 +19°C° 0 mm 2 mps 741 mmHg 85%
08:00 +21°C° 0 mm 3 mps 741 mmHg 81%
09:00 +22°C° 0 mm 3 mps 741 mmHg 77%
10:00 +24°C° 0 mm 3 mps 741 mmHg 73%
11:00 +25°C° 0 mm 3 mps 741 mmHg 70%
12:00 +26°C° 0 mm 3 mps 741 mmHg 67%
13:00 +26°C° 0 mm 3 mps 740 mmHg 66%
14:00 +27°C° 0 mm 3 mps 740 mmHg 65%
15:00 +27°C° 0 mm 3 mps 740 mmHg 64%
16:00 +27°C° 0 mm 3 mps 740 mmHg 67%
17:00 +26°C° 0 mm 3 mps 739 mmHg 70%
18:00 +26°C° 0 mm 3 mps 739 mmHg 72%
19:00 +24°C° 0 mm 2 mps 739 mmHg 76%
20:00 +23°C° 0 mm 2 mps 739 mmHg 79%
21:00 +21°C° 0 mm 1 mps 739 mmHg 82%
22:00 +20°C° 0 mm 1 mps 738 mmHg 83%
23:00 +19°C° 0 mm 2 mps 738 mmHg 83%

Tomorrow, 13 July, Monday

Time Temperature Precipitation Wind Pressure Humidity
00:00 +18°C° 0 mm 2 mps 738 mmHg 84%
01:00 +18°C° 0 mm 2 mps 738 mmHg 85%
02:00 +18°C° 0 mm 1 mps 738 mmHg 86%
03:00 +18°C° 0 mm 1 mps 738 mmHg 87%
04:00 +18°C° 0 mm 1 mps 737 mmHg 87%
05:00 +19°C° 0 mm 1 mps 737 mmHg 86%
06:00 +19°C° 0 mm 1 mps 736 mmHg 86%
07:00 +20°C° 0 mm 1 mps 737 mmHg 83%
08:00 +21°C° 0 mm 2 mps 737 mmHg 80%
09:00 +23°C° 0 mm 2 mps 737 mmHg 76%
10:00 +24°C° 0 mm 2 mps 737 mmHg 73%
11:00 +25°C° 0 mm 2 mps 736 mmHg 70%
12:00 +26°C° 0 mm 2 mps 736 mmHg 66%
13:00 +25°C° 0.6 mm 2 mps 736 mmHg 69%
14:00 +25°C° 0.6 mm 2 mps 736 mmHg 71%
15:00 +25°C° 0.6 mm 2 mps 736 mmHg 74%
16:00 +24°C° 0.8 mm 2 mps 735 mmHg 78%
17:00 +23°C° 0.8 mm 2 mps 735 mmHg 81%
18:00 +23°C° 0.8 mm 2 mps 734 mmHg 85%
19:00 +21°C° 0.6 mm 2 mps 734 mmHg 87%
20:00 +20°C° 0.6 mm 3 mps 734 mmHg 90%
21:00 +19°C° 0.6 mm 3 mps 734 mmHg 92%
22:00 +19°C° 0.6 mm 4 mps 734 mmHg 93%
23:00 +18°C° 0.6 mm 4 mps 734 mmHg 95%

Day after tomorrow, 14 July, Tuesday

Time Temperature Precipitation Wind Pressure Humidity
00:00 +18°C° 0.6 mm 4 mps 734 mmHg 96%
01:00 +18°C° 0.5 mm 4 mps 734 mmHg 96%
02:00 +18°C° 0.5 mm 4 mps 734 mmHg 97%
03:00 +17°C° 0.5 mm 5 mps 733 mmHg 97%
04:00 +18°C° 0.2 mm 4 mps 733 mmHg 97%
05:00 +18°C° 0.2 mm 4 mps 732 mmHg 97%
06:00 +18°C° 0.2 mm 3 mps 732 mmHg 97%
07:00 +19°C° 0.1 mm 3 mps 732 mmHg 95%
08:00 +19°C° 0.1 mm 4 mps 732 mmHg 94%
09:00 +20°C° 0.1 mm 4 mps 732 mmHg 92%
10:00 +20°C° 0.6 mm 3 mps 732 mmHg 93%
11:00 +20°C° 0.6 mm 3 mps 732 mmHg 93%
12:00 +20°C° 0.6 mm 3 mps 732 mmHg 94%
13:00 +19°C° 0.6 mm 3 mps 732 mmHg 94%
14:00 +19°C° 0.6 mm 3 mps 732 mmHg 95%
15:00 +19°C° 0.6 mm 3 mps 731 mmHg 95%
16:00 +19°C° 0.8 mm 3 mps 731 mmHg 96%
17:00 +19°C° 0.8 mm 3 mps 731 mmHg 96%
18:00 +19°C° 0.8 mm 3 mps 730 mmHg 96%
19:00 +18°C° 0.5 mm 3 mps 730 mmHg 96%
20:00 +18°C° 0.5 mm 2 mps 730 mmHg 97%
21:00 +18°C° 0.5 mm 2 mps 730 mmHg 97%
22:00 +18°C° 0.1 mm 2 mps 730 mmHg 97%
23:00 +18°C° 0.1 mm 2 mps 729 mmHg 97%

15 July, Wednesday

Time Temperature Precipitation Wind Pressure Humidity
00:00 +17°C° 0.1 mm 2 mps 729 mmHg 97%
01:00 +17°C° 0.2 mm 2 mps 729 mmHg 97%
02:00 +17°C° 0.2 mm 2 mps 729 mmHg 97%
03:00 +17°C° 0.2 mm 2 mps 729 mmHg 97%
04:00 +17°C° 0.1 mm 2 mps 728 mmHg 97%
05:00 +17°C° 0.1 mm 2 mps 728 mmHg 97%
06:00 +17°C° 0.1 mm 2 mps 728 mmHg 97%
07:00 +18°C° 0.3 mm 2 mps 728 mmHg 96%
08:00 +18°C° 0.3 mm 2 mps 728 mmHg 94%
09:00 +19°C° 0.3 mm 2 mps 728 mmHg 93%
10:00 +19°C° 0.4 mm 2 mps 728 mmHg 91%
11:00 +19°C° 0.4 mm 2 mps 729 mmHg 88%
12:00 +20°C° 0.4 mm 3 mps 729 mmHg 86%
13:00 +20°C° 1 mm 3 mps 729 mmHg 85%
14:00 +20°C° 1 mm 3 mps 729 mmHg 84%
15:00 +20°C° 1 mm 4 mps 729 mmHg 83%
16:00 +19°C° 0.7 mm 4 mps 729 mmHg 86%
17:00 +16°C° 0.7 mm 5 mps 729 mmHg 90%
18:00 +15°C° 0.7 mm 6 mps 729 mmHg 93%
19:00 +14°C° 0 mm 6 mps 730 mmHg 93%
20:00 +14°C° 0 mm 5 mps 730 mmHg 93%
21:00 +13°C° 0 mm 5 mps 730 mmHg 93%
22:00 +13°C° 0 mm 5 mps 730 mmHg 93%
23:00 +13°C° 0 mm 5 mps 730 mmHg 93%

16 July, Thursday

Time Temperature Precipitation Wind Pressure Humidity
00:00 +12°C° 0 mm 5 mps 730 mmHg 93%
01:00 +12°C° 0 mm 5 mps 731 mmHg 93%
02:00 +12°C° 0 mm 5 mps 731 mmHg 93%
03:00 +12°C° 0 mm 5 mps 731 mmHg 93%
04:00 +11°C° 0 mm 6 mps 731 mmHg 93%
05:00 +11°C° 0 mm 6 mps 731 mmHg 93%
06:00 +11°C° 0 mm 6 mps 731 mmHg 93%
07:00 +11°C° 0.1 mm 6 mps 732 mmHg 92%
08:00 +11°C° 0.1 mm 6 mps 732 mmHg 92%
09:00 +11°C° 0.1 mm 6 mps 732 mmHg 92%
10:00 +13°C° 0 mm 6 mps 732 mmHg 91%
11:00 +13°C° 0 mm 6 mps 733 mmHg 90%
12:00 +13°C° 0 mm 6 mps 733 mmHg 89%
13:00 +14°C° 0 mm 6 mps 733 mmHg 87%
14:00 +15°C° 0 mm 6 mps 733 mmHg 85%
15:00 +15°C° 0 mm 6 mps 734 mmHg 84%
16:00 +15°C° 0 mm 6 mps 734 mmHg 84%
17:00 +15°C° 0 mm 5 mps 734 mmHg 83%
18:00 +15°C° 0 mm 5 mps 734 mmHg 83%
19:00 +15°C° 0 mm 4 mps 734 mmHg 85%
20:00 +14°C° 0 mm 4 mps 734 mmHg 87%
21:00 +14°C° 0 mm 3 mps 734 mmHg 89%
22:00 +13°C° 0 mm 3 mps 734 mmHg 90%
23:00 +13°C° 0 mm 3 mps 734 mmHg 90%

17 July, Friday

Time Temperature Precipitation Wind Pressure Humidity
00:00 +12°C° 0 mm 3 mps 734 mmHg 91%
01:00 +12°C° 0 mm 3 mps 735 mmHg 92%
02:00 +11°C° 0 mm 3 mps 735 mmHg 94%
03:00 +11°C° 0 mm 3 mps 735 mmHg 95%
04:00 +11°C° 0 mm 3 mps 735 mmHg 94%
05:00 +11°C° 0 mm 3 mps 735 mmHg 94%
06:00 +12°C° 0 mm 3 mps 735 mmHg 93%
07:00 +13°C° 0 mm 3 mps 735 mmHg 89%
08:00 +16°C° 0 mm 3 mps 736 mmHg 85%
09:00 +18°C° 0 mm 4 mps 736 mmHg 81%
10:00 +19°C° 0.1 mm 4 mps 736 mmHg 77%
11:00 +20°C° 0.1 mm 5 mps 736 mmHg 72%
12:00 +21°C° 0.1 mm 5 mps 736 mmHg 68%
13:00 +22°C° 0.1 mm 5 mps 736 mmHg 66%
14:00 +22°C° 0.1 mm 5 mps 736 mmHg 65%
15:00 +22°C° 0.1 mm 4 mps 736 mmHg 64%
16:00 +22°C° 0.3 mm 4 mps 736 mmHg 68%
17:00 +22°C° 0.3 mm 3 mps 736 mmHg 73%
18:00 +21°C° 0.3 mm 2 mps 736 mmHg 77%
19:00 +20°C° 0.2 mm 2 mps 736 mmHg 81%
20:00 +19°C° 0.2 mm 2 mps 736 mmHg 84%
21:00 +18°C° 0.2 mm 2 mps 736 mmHg 87%
22:00 +17°C° 0 mm 2 mps 736 mmHg 88%
23:00 +17°C° 0 mm 2 mps 736 mmHg 90%
Show more